Time,TemperatureF,DewpointF,PressureIn,WindDirection,WindDirectionDegrees,WindSpeedMPH,WindSpeedGustMPH,Humidity,HourlyPrecipIn,Conditions,Clouds,dailyrainin,SolarRadiationWatts/m^2,SoftwareType,DateUTC
2013-01-29 00:01:00,61.0,60.0,-100.00,ESE,116,0.0,0.0,98,0.00,,,1.90,0.000000,,2013-01-29 10:01:00,
2013-01-29 00:11:00,61.0,60.0,-100.00,ESE,116,0.0,0.0,98,0.00,,,1.90,0.000000,,2013-01-29 10:11:00,
2013-01-29 00:21:00,61.0,60.0,-100.00,ESE,116,0.0,0.0,98,0.00,,,1.90,0.000000,,2013-01-29 10:21:00,
2013-01-29 00:32:00,61.0,60.0,-100.00,ESE,116,0.0,0.0,98,0.00,,,1.90,0.000000,,2013-01-29 10:32:00,
2013-01-29 01:01:00,59.0,58.0,-100.00,ESE,116,0.0,0.0,98,0.00,,,1.85,0.000000,,2013-01-29 11:01:00,
2013-01-29 01:11:00,59.0,58.0,-100.00,ESE,116,0.0,0.0,98,0.00,,,1.85,0.000000,,2013-01-29 11:11:00,
2013-01-29 01:21:00,59.0,58.0,-100.00,ESE,116,0.0,0.0,98,0.00,,,1.85,0.000000,,2013-01-29 11:21:00,
2013-01-29 01:31:00,59.0,58.0,-100.00,ESE,116,0.0,0.0,98,0.00,,,1.85,0.000000,,2013-01-29 11:31:00,
2013-01-29 01:52:00,60.0,58.0,-100.00,SSW,192,0.0,0.0,92,0.00,,,1.71,0.000000,,2013-01-29 11:52:00,
2013-01-29 02:02:00,60.0,58.0,-100.00,SSW,192,0.0,0.0,92,0.00,,,1.71,0.000000,,2013-01-29 12:02:00,
2013-01-29 02:12:00,60.0,58.0,-100.00,SSW,192,0.0,0.0,92,0.00,,,1.71,0.000000,,2013-01-29 12:12:00,
2013-01-29 02:22:00,60.0,58.0,-100.00,SSW,192,0.0,0.0,92,0.00,,,1.71,0.000000,,2013-01-29 12:22:00,
2013-01-29 02:32:00,60.0,58.0,-100.00,SSW,192,0.0,0.0,92,0.00,,,1.71,0.000000,,2013-01-29 12:32:00,
2013-01-29 03:01:00,60.0,59.0,-100.00,South,176,0.0,0.0,95,0.00,,,1.57,0.000000,,2013-01-29 13:01:00,
2013-01-29 03:11:00,60.0,59.0,-100.00,South,176,0.0,0.0,95,0.00,,,1.57,0.000000,,2013-01-29 13:11:00,
2013-01-29 03:22:00,60.0,59.0,-100.00,South,176,0.0,0.0,95,0.00,,,1.57,0.000000,,2013-01-29 13:22:00,
2013-01-29 03:31:00,60.0,59.0,-100.00,South,176,0.0,0.0,95,0.00,,,1.57,0.000000,,2013-01-29 13:31:00,
2013-01-29 04:02:00,60.0,58.0,-100.00,WSW,248,0.0,0.0,93,0.00,,,1.44,0.000000,,2013-01-29 14:02:00,
2013-01-29 04:12:00,60.0,58.0,-100.00,WSW,248,0.0,0.0,93,0.00,,,1.44,0.000000,,2013-01-29 14:12:00,
2013-01-29 04:21:00,60.0,58.0,-100.00,WSW,248,0.0,0.0,93,0.00,,,1.44,0.000000,,2013-01-29 14:21:00,
2013-01-29 04:32:00,60.0,58.0,-100.00,WSW,248,0.0,0.0,93,0.00,,,1.44,0.000000,,2013-01-29 14:32:00,
2013-01-29 05:02:00,60.0,59.0,-100.00,West,276,0.0,0.0,96,0.00,,,1.41,0.000000,,2013-01-29 15:02:00,
2013-01-29 05:12:00,60.0,59.0,-100.00,West,276,0.0,0.0,96,0.00,,,1.41,0.000000,,2013-01-29 15:12:00,
2013-01-29 05:22:00,60.0,59.0,-100.00,West,276,0.0,0.0,96,0.00,,,1.41,0.000000,,2013-01-29 15:22:00,
2013-01-29 05:32:00,60.0,59.0,-100.00,West,276,0.0,0.0,96,0.00,,,1.41,0.000000,,2013-01-29 15:32:00,
2013-01-29 06:02:00,61.0,60.0,-100.00,South,179,0.0,0.0,97,0.00,,,-99.99,0.000000,,2013-01-29 16:02:00,
2013-01-29 06:12:00,61.0,60.0,-100.00,South,179,0.0,0.0,97,0.00,,,-99.99,0.000000,,2013-01-29 16:12:00,
2013-01-29 06:22:00,61.0,60.0,-100.00,South,179,0.0,0.0,97,0.00,,,-99.99,0.000000,,2013-01-29 16:22:00,
2013-01-29 06:32:00,61.0,60.0,-100.00,South,179,0.0,0.0,97,0.00,,,-99.99,0.000000,,2013-01-29 16:32:00,
2013-01-29 07:03:00,61.0,60.0,-100.00,WSW,253,0.0,0.0,98,0.01,,,1.21,0.000000,,2013-01-29 17:03:00,
2013-01-29 07:12:00,61.0,60.0,-100.00,WSW,253,0.0,0.0,98,0.01,,,1.21,0.000000,,2013-01-29 17:12:00,
2013-01-29 07:21:00,61.0,60.0,-100.00,WSW,253,0.0,0.0,98,0.01,,,1.21,0.000000,,2013-01-29 17:21:00,
2013-01-29 07:32:00,61.0,60.0,-100.00,WSW,253,0.0,0.0,98,0.01,,,1.21,0.000000,,2013-01-29 17:32:00,
2013-01-29 08:03:00,61.0,60.0,-100.00,WSW,253,0.0,0.0,98,0.00,,,1.15,0.000000,,2013-01-29 18:03:00,
2013-01-29 08:12:00,61.0,60.0,-100.00,WSW,253,0.0,0.0,98,0.00,,,1.15,0.000000,,2013-01-29 18:12:00,
2013-01-29 08:22:00,61.0,60.0,-100.00,WSW,253,0.0,0.0,98,0.00,,,1.15,0.000000,,2013-01-29 18:22:00,
2013-01-29 08:33:00,61.0,60.0,-100.00,WSW,253,0.0,0.0,98,0.00,,,1.15,0.000000,,2013-01-29 18:33:00,
2013-01-29 09:02:00,62.0,60.0,-100.00,NE,39,0.0,0.0,93,0.00,,,1.08,0.000000,,2013-01-29 19:02:00,
2013-01-29 09:11:00,62.0,60.0,-100.00,NE,39,0.0,0.0,93,0.00,,,1.08,0.000000,,2013-01-29 19:11:00,
2013-01-29 09:22:00,62.0,60.0,-100.00,NE,39,0.0,0.0,93,0.00,,,1.08,0.000000,,2013-01-29 19:22:00,
2013-01-29 09:31:00,62.0,60.0,-100.00,NE,39,0.0,0.0,93,0.00,,,1.08,0.000000,,2013-01-29 19:31:00,
2013-01-29 10:02:00,67.0,63.0,-100.00,SSW,212,0.0,0.0,88,0.00,,,1.06,0.000000,,2013-01-29 20:02:00,
2013-01-29 10:12:00,67.0,63.0,-100.00,SSW,212,0.0,0.0,88,0.00,,,1.06,0.000000,,2013-01-29 20:12:00,
2013-01-29 10:22:00,67.0,63.0,-100.00,SSW,212,0.0,0.0,88,0.00,,,1.06,0.000000,,2013-01-29 20:22:00,
2013-01-29 10:32:00,67.0,63.0,-100.00,SSW,212,0.0,0.0,88,0.00,,,1.06,0.000000,,2013-01-29 20:32:00,
2013-01-29 11:02:00,69.0,63.0,-100.00,SW,226,0.0,0.0,81,0.00,,,0.99,0.000000,,2013-01-29 21:02:00,
2013-01-29 11:12:00,69.0,63.0,-100.00,SW,226,0.0,0.0,81,0.00,,,0.99,0.000000,,2013-01-29 21:12:00,
2013-01-29 11:22:00,69.0,63.0,-100.00,SW,226,0.0,0.0,81,0.00,,,0.99,0.000000,,2013-01-29 21:22:00,
2013-01-29 11:32:00,69.0,63.0,-100.00,SW,226,0.0,0.0,81,0.00,,,0.99,0.000000,,2013-01-29 21:32:00,
2013-01-29 12:02:00,67.0,63.0,-100.00,East,89,0.0,0.0,87,0.00,,,0.87,0.000000,,2013-01-29 22:02:00,
2013-01-29 12:12:00,67.0,63.0,-100.00,East,89,0.0,0.0,87,0.00,,,0.87,0.000000,,2013-01-29 22:12:00,
2013-01-29 12:21:00,67.0,63.0,-100.00,East,89,0.0,0.0,87,0.00,,,0.87,0.000000,,2013-01-29 22:21:00,
2013-01-29 12:32:00,67.0,63.0,-100.00,East,89,0.0,0.0,87,0.00,,,0.87,0.000000,,2013-01-29 22:32:00,
2013-01-29 13:02:00,63.0,62.0,-100.00,ENE,71,0.0,0.0,97,0.00,,,0.66,0.000000,,2013-01-29 23:02:00,
2013-01-29 13:12:00,63.0,62.0,-100.00,ENE,71,0.0,0.0,97,0.00,,,0.66,0.000000,,2013-01-29 23:12:00,
2013-01-29 13:22:00,63.0,62.0,-100.00,ENE,71,0.0,0.0,97,0.00,,,0.66,0.000000,,2013-01-29 23:22:00,
2013-01-29 13:32:00,63.0,62.0,-100.00,ENE,71,0.0,0.0,97,0.00,,,0.66,0.000000,,2013-01-29 23:32:00,
2013-01-29 14:02:00,62.0,61.0,-100.00,ESE,106,0.0,0.0,98,0.02,,,0.36,0.000000,,2013-01-30 00:02:00,
2013-01-29 14:11:00,62.0,61.0,-100.00,ESE,106,0.0,0.0,98,0.02,,,0.36,0.000000,,2013-01-30 00:11:00,
2013-01-29 14:22:00,62.0,61.0,-100.00,ESE,106,0.0,0.0,98,0.02,,,0.36,0.000000,,2013-01-30 00:22:00,
2013-01-29 14:32:00,62.0,61.0,-100.00,ESE,106,0.0,0.0,98,0.02,,,0.36,0.000000,,2013-01-30 00:32:00,
2013-01-29 15:01:00,63.0,62.0,-100.00,East,83,0.0,0.0,98,0.08,,,0.34,0.000000,,2013-01-30 01:01:00,
2013-01-29 15:11:00,63.0,62.0,-100.00,East,83,0.0,0.0,98,0.08,,,0.34,0.000000,,2013-01-30 01:11:00,
2013-01-29 15:22:00,63.0,62.0,-100.00,East,83,0.0,0.0,98,0.08,,,0.34,0.000000,,2013-01-30 01:22:00,
2013-01-29 15:31:00,63.0,62.0,-100.00,East,83,0.0,0.0,98,0.08,,,0.34,0.000000,,2013-01-30 01:31:00,
2013-01-29 16:02:00,63.0,62.0,-100.00,East,97,0.0,0.0,96,0.00,,,0.31,0.000000,,2013-01-30 02:02:00,
2013-01-29 16:12:00,63.0,62.0,-100.00,East,97,0.0,0.0,96,0.00,,,0.31,0.000000,,2013-01-30 02:12:00,
2013-01-29 16:21:00,63.0,62.0,-100.00,East,97,0.0,0.0,96,0.00,,,0.31,0.000000,,2013-01-30 02:21:00,
2013-01-29 16:33:00,63.0,62.0,-100.00,East,97,0.0,0.0,96,0.00,,,0.31,0.000000,,2013-01-30 02:33:00,
2013-01-29 17:02:00,63.0,62.0,-100.00,East,92,0.0,0.0,97,0.00,,,0.29,0.000000,,2013-01-30 03:02:00,
2013-01-29 17:11:00,63.0,62.0,-100.00,East,92,0.0,0.0,97,0.00,,,0.29,0.000000,,2013-01-30 03:11:00,
2013-01-29 17:22:00,63.0,62.0,-100.00,East,92,0.0,0.0,97,0.00,,,0.29,0.000000,,2013-01-30 03:22:00,
2013-01-29 17:31:00,63.0,62.0,-100.00,East,92,0.0,0.0,97,0.00,,,0.29,0.000000,,2013-01-30 03:31:00,
2013-01-29 18:02:00,62.0,61.0,-100.00,East,86,0.0,0.0,96,0.00,,,0.11,0.000000,,2013-01-30 04:02:00,
2013-01-29 18:11:00,62.0,61.0,-100.00,East,86,0.0,0.0,96,0.00,,,0.11,0.000000,,2013-01-30 04:11:00,
2013-01-29 18:22:00,62.0,61.0,-100.00,East,86,0.0,0.0,96,0.00,,,0.11,0.000000,,2013-01-30 04:22:00,
2013-01-29 18:31:00,62.0,61.0,-100.00,East,86,0.0,0.0,96,0.00,,,0.11,0.000000,,2013-01-30 04:31:00,
2013-01-29 19:03:00,62.0,61.0,-100.00,NE,39,0.0,0.0,98,0.00,,,0.11,0.000000,,2013-01-30 05:03:00,
2013-01-29 19:11:00,62.0,61.0,-100.00,NE,39,0.0,0.0,98,0.00,,,0.11,0.000000,,2013-01-30 05:11:00,
2013-01-29 19:22:00,62.0,61.0,-100.00,NE,39,0.0,0.0,98,0.00,,,0.11,0.000000,,2013-01-30 05:22:00,
2013-01-29 19:32:00,62.0,61.0,-100.00,NE,39,0.0,0.0,98,0.00,,,0.11,0.000000,,2013-01-30 05:32:00,
2013-01-29 19:52:00,62.0,61.0,-100.00,NNE,23,0.0,0.0,95,0.00,,,0.11,0.000000,,2013-01-30 05:52:00,
2013-01-29 20:02:00,62.0,61.0,-100.00,NNE,23,0.0,0.0,95,0.00,,,0.11,0.000000,,2013-01-30 06:02:00,
2013-01-29 20:11:00,62.0,61.0,-100.00,NNE,23,0.0,0.0,95,0.00,,,0.11,0.000000,,2013-01-30 06:11:00,
2013-01-29 20:21:00,62.0,61.0,-100.00,NNE,23,0.0,0.0,95,0.00,,,0.11,0.000000,,2013-01-30 06:21:00,
2013-01-29 20:31:00,62.0,61.0,-100.00,NNE,23,0.0,0.0,95,0.00,,,0.11,0.000000,,2013-01-30 06:31:00,
2013-01-29 21:01:00,62.0,61.0,-100.00,NNE,25,0.0,0.0,97,0.00,,,0.11,0.000000,,2013-01-30 07:01:00,
2013-01-29 21:11:00,62.0,61.0,-100.00,NNE,25,0.0,0.0,97,0.00,,,0.11,0.000000,,2013-01-30 07:11:00,
2013-01-29 21:21:00,62.0,61.0,-100.00,NNE,25,0.0,0.0,97,0.00,,,0.11,0.000000,,2013-01-30 07:21:00,
2013-01-29 21:31:00,62.0,61.0,-100.00,NNE,25,0.0,0.0,97,0.00,,,0.11,0.000000,,2013-01-30 07:31:00,
2013-01-29 22:01:00,62.0,60.0,-100.00,NNE,25,0.0,0.0,93,0.00,,,0.11,0.000000,,2013-01-30 08:01:00,
2013-01-29 22:11:00,62.0,60.0,-100.00,NNE,25,0.0,0.0,93,0.00,,,0.11,0.000000,,2013-01-30 08:11:00,
2013-01-29 22:21:00,62.0,60.0,-100.00,NNE,25,0.0,0.0,93,0.00,,,0.11,0.000000,,2013-01-30 08:21:00,
2013-01-29 22:32:00,62.0,60.0,-100.00,NNE,25,0.0,0.0,93,0.00,,,0.11,0.000000,,2013-01-30 08:32:00,
2013-01-29 23:01:00,62.0,61.0,-100.00,NNE,24,0.0,0.0,95,0.00,,,0.11,0.000000,,2013-01-30 09:01:00,
2013-01-29 23:11:00,62.0,61.0,-100.00,NNE,24,0.0,0.0,95,0.00,,,0.11,0.000000,,2013-01-30 09:11:00,
2013-01-29 23:21:00,62.0,61.0,-100.00,NNE,24,0.0,0.0,95,0.00,,,0.11,0.000000,,2013-01-30 09:21:00,
2013-01-29 23:31:00,62.0,61.0,-100.00,NNE,24,0.0,0.0,95,0.00,,,0.11,0.000000,,2013-01-30 09:31:00,